Private Wetterstation Sandau
Wetterdaten: Mittwoch, 25.01.2012
Datum Zeit Temp. A. Feuchte A. Luftdruck Regen Wind Richtung Richtung Taupunkt Windchill
25.01.2012 00:02 -0,8 C 89 % 1024,4 hPa 0,0 l/m 0,0 km/h (0 Bft) O 90 -2,4 C -0,8 C
25.01.2012 00:07 -0,8 C 89 % 1024,3 hPa 0,0 l/m 1,1 km/h (1 Bft) O 90 -2,4 C -0,8 C
25.01.2012 00:12 -0,9 C 89 % 1024,3 hPa 0,0 l/m 2,9 km/h (1 Bft) O 90 -2,5 C -0,9 C
25.01.2012 00:17 -0,9 C 89 % 1024,3 hPa 0,0 l/m 2,2 km/h (1 Bft) O 90 -2,5 C -0,9 C
25.01.2012 00:22 -0,9 C 89 % 1024,5 hPa 0,0 l/m 0,0 km/h (0 Bft) O 90 -2,5 C -0,9 C
25.01.2012 00:27 -0,8 C 89 % 1024,4 hPa 0,0 l/m 1,8 km/h (1 Bft) O 90 -2,4 C -0,8 C
25.01.2012 00:32 -0,9 C 89 % 1024,6 hPa 0,0 l/m 0,0 km/h (0 Bft) O 90 -2,5 C -0,9 C
25.01.2012 00:37 -0,9 C 89 % 1024,7 hPa 0,0 l/m 0,0 km/h (0 Bft) O 90 -2,5 C -0,9 C
25.01.2012 00:42 -1,1 C 89 % 1024,6 hPa 0,0 l/m 1,1 km/h (1 Bft) O 90 -2,7 C -1,1 C
25.01.2012 00:47 -1,1 C 89 % 1024,7 hPa 0,0 l/m 0,0 km/h (0 Bft) O 90 -2,7 C -1,1 C
25.01.2012 00:52 -1,1 C 89 % 1024,7 hPa 0,0 l/m 5,8 km/h (2 Bft) O 90 -2,7 C -3,2 C
25.01.2012 00:57 -1,1 C 89 % 1024,8 hPa 0,0 l/m 4,0 km/h (1 Bft) O 90 -2,7 C -1,1 C
25.01.2012 01:02 -1,2 C 90 % 1024,6 hPa 0,0 l/m 0,0 km/h (0 Bft) O 90 -2,6 C -1,2 C
25.01.2012 01:07 -1,3 C 89 % 1024,9 hPa 0,0 l/m 2,9 km/h (1 Bft) O 90 -2,9 C -1,3 C
25.01.2012 01:12 -1,4 C 89 % 1024,8 hPa 0,0 l/m 3,6 km/h (1 Bft) O 90 -3,0 C -1,4 C
25.01.2012 01:17 -1,5 C 89 % 1025,0 hPa 0,0 l/m 4,7 km/h (1 Bft) O 90 -3,1 C -3,1 C
25.01.2012 01:22 -1,6 C 89 % 1024,8 hPa 0,0 l/m 3,6 km/h (1 Bft) O 90 -3,2 C -1,6 C
25.01.2012 01:27 -1,7 C 89 % 1024,8 hPa 0,0 l/m 3,2 km/h (1 Bft) O 90 -3,3 C -1,7 C
25.01.2012 01:32 -1,7 C 89 % 1024,8 hPa 0,0 l/m 4,0 km/h (1 Bft) O 90 -3,3 C -1,7 C
25.01.2012 01:37 -1,8 C 90 % 1024,8 hPa 0,0 l/m 2,2 km/h (1 Bft) O 90 -3,2 C -1,8 C
25.01.2012 01:42 -1,8 C 90 % 1024,9 hPa 0,0 l/m 5,0 km/h (1 Bft) O 90 -3,2 C -3,6 C
25.01.2012 01:47 -1,8 C 90 % 1024,7 hPa 0,0 l/m 6,5 km/h (2 Bft) O 90 -3,2 C -4,3 C
25.01.2012 01:52 -1,8 C 90 % 1024,8 hPa 0,0 l/m 4,0 km/h (1 Bft) O 90 -3,2 C -1,8 C
25.01.2012 01:57 -1,8 C 90 % 1024,9 hPa 0,0 l/m 2,9 km/h (1 Bft) O 90 -3,2 C -1,8 C
25.01.2012 02:02 -1,8 C 90 % 1025,0 hPa 0,0 l/m 1,4 km/h (1 Bft) O 90 -3,2 C -1,8 C
25.01.2012 02:07 -1,7 C 90 % 1025,1 hPa 0,0 l/m 1,1 km/h (1 Bft) O 90 -3,1 C -1,7 C
25.01.2012 02:12 -1,6 C 90 % 1025,1 hPa 0,0 l/m 0,0 km/h (0 Bft) O 90 -3,0 C -1,6 C
25.01.2012 02:17 -1,6 C 91 % 1025,1 hPa 0,0 l/m 1,1 km/h (1 Bft) O 90 -2,9 C -1,6 C
25.01.2012 02:22 -1,6 C 91 % 1025,2 hPa 0,0 l/m 0,0 km/h (0 Bft) O 90 -2,9 C -1,6 C
25.01.2012 02:27 -1,5 C 91 % 1025,2 hPa 0,0 l/m 0,0 km/h (0 Bft) O 90 -2,8 C -1,5 C
25.01.2012 02:32 -1,5 C 91 % 1025,2 hPa 0,0 l/m 0,0 km/h (0 Bft) O 90 -2,8 C -1,5 C
25.01.2012 02:37 -1,5 C 91 % 1025,3 hPa 0,0 l/m 2,5 km/h (1 Bft) O 90 -2,8 C -1,5 C
25.01.2012 02:42 -1,6 C 91 % 1025,4 hPa 0,0 l/m 2,2 km/h (1 Bft) O 90 -2,9 C -1,6 C
25.01.2012 02:47 -1,5 C 91 % 1025,2 hPa 0,0 l/m 5,4 km/h (1 Bft) O 90 -2,8 C -3,5 C
25.01.2012 02:52 -1,6 C 91 % 1025,3 hPa 0,0 l/m 3,2 km/h (1 Bft) O 90 -2,9 C -1,6 C
25.01.2012 02:57 -1,6 C 91 % 1025,4 hPa 0,0 l/m 1,8 km/h (1 Bft) O 90 -2,9 C -1,6 C
25.01.2012 03:02 -1,6 C 91 % 1025,4 hPa 0,0 l/m 2,5 km/h (1 Bft) O 90 -2,9 C -1,6 C
25.01.2012 03:07 -1,6 C 91 % 1025,4 hPa 0,0 l/m 0,0 km/h (0 Bft) O 90 -2,9 C -1,6 C
25.01.2012 03:12 -1,7 C 91 % 1025,5 hPa 0,0 l/m 0,0 km/h (0 Bft) O 90 -3,0 C -1,7 C
25.01.2012 03:17 -1,7 C 91 % 1025,4 hPa 0,0 l/m 3,2 km/h (1 Bft) O 90 -3,0 C -1,7 C
25.01.2012 03:22 -1,7 C 91 % 1025,3 hPa 0,0 l/m 0,0 km/h (0 Bft) O 90 -3,0 C -1,7 C
25.01.2012 03:27 -1,7 C 91 % 1025,5 hPa 0,0 l/m 4,7 km/h (1 Bft) O 90 -3,0 C -3,4 C
25.01.2012 03:32 -1,7 C 91 % 1025,5 hPa 0,0 l/m 0,0 km/h (0 Bft) O 90 -3,0 C -1,7 C
25.01.2012 03:37 -1,7 C 91 % 1025,5 hPa 0,0 l/m 1,8 km/h (1 Bft) O 90 -3,0 C -1,7 C
25.01.2012 03:42 -1,8 C 91 % 1025,4 hPa 0,0 l/m 0,0 km/h (0 Bft) O 90 -3,1 C -1,8 C
25.01.2012 03:47 -1,7 C 91 % 1025,4 hPa 0,0 l/m 2,5 km/h (1 Bft) O 90 -3,0 C -1,7 C
25.01.2012 03:52 -1,7 C 91 % 1025,4 hPa 0,0 l/m 4,7 km/h (1 Bft) O 90 -3,0 C -3,4 C
25.01.2012 03:57 -1,8 C 91 % 1025,5 hPa 0,0 l/m 1,4 km/h (1 Bft) O 90 -3,1 C -1,8 C
25.01.2012 04:02 -1,7 C 91 % 1025,4 hPa 0,0 l/m 0,0 km/h (0 Bft) O 90 -3,0 C -1,7 C
25.01.2012 04:07 -1,8 C 91 % 1025,4 hPa 0,0 l/m 1,4 km/h (1 Bft) O 90 -3,1 C -1,8 C
25.01.2012 04:12 -1,8 C 91 % 1025,5 hPa 0,0 l/m 2,5 km/h (1 Bft) O 90 -3,1 C -1,8 C
25.01.2012 04:17 -1,8 C 91 % 1025,6 hPa 0,0 l/m 0,0 km/h (0 Bft) O 90 -3,1 C -1,8 C
25.01.2012 04:22 -1,7 C 91 % 1025,6 hPa 0,0 l/m 2,2 km/h (1 Bft) O 90 -3,0 C -1,7 C
25.01.2012 04:27 -1,8 C 91 % 1025,7 hPa 0,0 l/m 2,9 km/h (1 Bft) O 90 -3,1 C -1,8 C
25.01.2012 04:32 -1,8 C 91 % 1025,7 hPa 0,0 l/m 5,0 km/h (1 Bft) O 90 -3,1 C -3,6 C
25.01.2012 04:37 -1,9 C 91 % 1025,7 hPa 0,0 l/m 1,8 km/h (1 Bft) O 90 -3,2 C -1,9 C
25.01.2012 04:42 -1,9 C 91 % 1025,8 hPa 0,0 l/m 2,5 km/h (1 Bft) O 90 -3,2 C -1,9 C
25.01.2012 04:47 -1,9 C 91 % 1025,6 hPa 0,0 l/m 1,1 km/h (1 Bft) O 90 -3,2 C -1,9 C
25.01.2012 04:52 -2,1 C 91 % 1025,8 hPa 0,0 l/m 3,6 km/h (1 Bft) O 90 -3,4 C -2,1 C
25.01.2012 04:57 -2,1 C 91 % 1025,7 hPa 0,0 l/m 3,6 km/h (1 Bft) O 90 -3,4 C -2,1 C
25.01.2012 05:02 -2,1 C 91 % 1025,7 hPa 0,0 l/m 1,1 km/h (1 Bft) O 90 -3,4 C -2,1 C
25.01.2012 05:07 -2,1 C 91 % 1025,6 hPa 0,0 l/m 0,0 km/h (0 Bft) O 90 -3,4 C -2,1 C
25.01.2012 05:12 -2,1 C 91 % 1025,6 hPa 0,0 l/m 1,4 km/h (1 Bft) O 90 -3,4 C -2,1 C
25.01.2012 05:17 -2,1 C 91 % 1025,5 hPa 0,0 l/m 3,2 km/h (1 Bft) O 90 -3,4 C -2,1 C
25.01.2012 05:22 -2,1 C 91 % 1025,5 hPa 0,0 l/m 3,6 km/h (1 Bft) O 90 -3,4 C -2,1 C
25.01.2012 05:27 -2,1 C 91 % 1025,6 hPa 0,0 l/m 4,3 km/h (1 Bft) O 90 -3,4 C -2,1 C
25.01.2012 05:32 -2,1 C 91 % 1025,6 hPa 0,0 l/m 0,0 km/h (0 Bft) O 90 -3,4 C -2,1 C
25.01.2012 05:37 -2,2 C 91 % 1025,6 hPa 0,0 l/m 3,2 km/h (1 Bft) O 90 -3,5 C -2,2 C
25.01.2012 05:42 -2,2 C 91 % 1025,7 hPa 0,0 l/m 2,9 km/h (1 Bft) O 90 -3,5 C -2,2 C
25.01.2012 05:47 -2,2 C 91 % 1025,7 hPa 0,0 l/m 1,4 km/h (1 Bft) O 90 -3,5 C -2,2 C
25.01.2012 05:52 -2,2 C 91 % 1025,5 hPa 0,0 l/m 1,4 km/h (1 Bft) O 90 -3,5 C -2,2 C
25.01.2012 05:57 -2,2 C 92 % 1025,7 hPa 0,0 l/m 0,0 km/h (0 Bft) O 90 -3,3 C -2,2 C
25.01.2012 06:02 -2,2 C 92 % 1025,5 hPa 0,0 l/m 2,2 km/h (1 Bft) O 90 -3,3 C -2,2 C
25.01.2012 06:07 -2,2 C 92 % 1025,5 hPa 0,0 l/m 0,0 km/h (0 Bft) O 90 -3,3 C -2,2 C
25.01.2012 06:12 -2,2 C 92 % 1025,8 hPa 0,0 l/m 2,5 km/h (1 Bft) O 90 -3,3 C -2,2 C
25.01.2012 06:17 -2,2 C 91 % 1025,6 hPa 0,0 l/m 0,0 km/h (0 Bft) O 90 -3,5 C -2,2 C
25.01.2012 06:22 -2,2 C 91 % 1025,7 hPa 0,0 l/m 6,8 km/h (2 Bft) O 90 -3,5 C -4,9 C
25.01.2012 06:27 -2,4 C 91 % 1025,7 hPa 0,0 l/m 1,4 km/h (1 Bft) O 90 -3,7 C -2,4 C
25.01.2012 06:32 -2,4 C 91 % 1025,5 hPa 0,0 l/m 0,0 km/h (0 Bft) O 90 -3,7 C -2,4 C
25.01.2012 06:37 -2,3 C 92 % 1025,7 hPa 0,0 l/m 0,0 km/h (0 Bft) O 90 -3,4 C -2,3 C
25.01.2012 06:42 -2,2 C 92 % 1025,8 hPa 0,0 l/m 3,6 km/h (1 Bft) O 90 -3,3 C -2,2 C
25.01.2012 06:47 -2,2 C 91 % 1025,9 hPa 0,0 l/m 0,0 km/h (0 Bft) O 90 -3,5 C -2,2 C
25.01.2012 06:52 -2,2 C 91 % 1026,1 hPa 0,0 l/m 0,0 km/h (0 Bft) O 90 -3,5 C -2,2 C
25.01.2012 06:57 -2,2 C 92 % 1026,0 hPa 0,0 l/m 1,4 km/h (1 Bft) O 90 -3,3 C -2,2 C
25.01.2012 07:02 -2,1 C 92 % 1026,1 hPa 0,0 l/m 1,1 km/h (1 Bft) O 90 -3,2 C -2,1 C
25.01.2012 07:07 -2,1 C 92 % 1026,1 hPa 0,0 l/m 1,8 km/h (1 Bft) O 90 -3,2 C -2,1 C
25.01.2012 07:12 -2,1 C 92 % 1026,1 hPa 0,0 l/m 0,0 km/h (0 Bft) O 90 -3,2 C -2,1 C
25.01.2012 07:17 -2,2 C 92 % 1026,2 hPa 0,0 l/m 0,0 km/h (0 Bft) O 90 -3,3 C -2,2 C
25.01.2012 07:22 -2,2 C 92 % 1026,5 hPa 0,0 l/m 1,4 km/h (1 Bft) O 90 -3,3 C -2,2 C
25.01.2012 07:27 -2,2 C 91 % 1026,2 hPa 0,0 l/m 0,0 km/h (0 Bft) O 90 -3,5 C -2,2 C
25.01.2012 07:32 -2,2 C 91 % 1026,3 hPa 0,0 l/m 3,2 km/h (1 Bft) O 90 -3,5 C -2,2 C
25.01.2012 07:37 -2,3 C 91 % 1026,5 hPa 0,0 l/m 0,0 km/h (0 Bft) O 90 -3,6 C -2,3 C
25.01.2012 07:42 -2,4 C 91 % 1026,5 hPa 0,0 l/m 0,0 km/h (0 Bft) O 90 -3,7 C -2,4 C
25.01.2012 07:47 -2,4 C 91 % 1026,5 hPa 0,0 l/m 0,0 km/h (0 Bft) O 90 -3,7 C -2,4 C
25.01.2012 07:52 -2,4 C 91 % 1026,5 hPa 0,0 l/m 4,0 km/h (1 Bft) O 90 -3,7 C -2,4 C
25.01.2012 07:57 -2,5 C 91 % 1026,5 hPa 0,0 l/m 4,3 km/h (1 Bft) O 90 -3,8 C -2,5 C
25.01.2012 08:02 -2,6 C 91 % 1026,5 hPa 0,0 l/m 0,0 km/h (0 Bft) O 90 -3,9 C -2,6 C
25.01.2012 08:07 -2,7 C 91 % 1026,3 hPa 0,0 l/m 0,0 km/h (0 Bft) O 90 -4,0 C -2,7 C
25.01.2012 08:12 -2,8 C 91 % 1026,5 hPa 0,0 l/m 2,9 km/h (1 Bft) O 90 -4,1 C -2,8 C
25.01.2012 08:17 -2,7 C 91 % 1026,5 hPa 0,0 l/m 0,0 km/h (0 Bft) O 90 -4,0 C -2,7 C
25.01.2012 08:22 -2,7 C 91 % 1026,4 hPa 0,0 l/m 2,2 km/h (1 Bft) O 90 -4,0 C -2,7 C
25.01.2012 08:27 -2,7 C 91 % 1026,6 hPa 0,0 l/m 2,5 km/h (1 Bft) O 90 -4,0 C -2,7 C
25.01.2012 08:32 -2,7 C 91 % 1026,8 hPa 0,0 l/m 0,0 km/h (0 Bft) O 90 -4,0 C -2,7 C
25.01.2012 08:37 -2,7 C 91 % 1026,6 hPa 0,0 l/m 4,0 km/h (1 Bft) O 90 -4,0 C -2,7 C
25.01.2012 08:42 -2,8 C 91 % 1026,9 hPa 0,0 l/m 1,1 km/h (1 Bft) O 90 -4,1 C -2,8 C
25.01.2012 08:47 -2,8 C 91 % 1026,8 hPa 0,0 l/m 3,2 km/h (1 Bft) O 90 -4,1 C -2,8 C
25.01.2012 08:52 -2,7 C 91 % 1026,7 hPa 0,0 l/m 0,0 km/h (0 Bft) O 90 -4,0 C -2,7 C
25.01.2012 08:57 -2,7 C 91 % 1026,7 hPa 0,0 l/m 0,0 km/h (0 Bft) O 90 -4,0 C -2,7 C
25.01.2012 09:02 -2,7 C 91 % 1026,6 hPa 0,0 l/m 0,0 km/h (0 Bft) O 90 -4,0 C -2,7 C
25.01.2012 09:07 -2,7 C 91 % 1026,8 hPa 0,0 l/m 0,0 km/h (0 Bft) O 90 -4,0 C -2,7 C
25.01.2012 09:12 -2,6 C 91 % 1026,7 hPa 0,0 l/m 0,0 km/h (0 Bft) O 90 -3,9 C -2,6 C
25.01.2012 09:17 -2,6 C 91 % 1026,7 hPa 0,0 l/m 0,0 km/h (0 Bft) O 90 -3,9 C -2,6 C
25.01.2012 09:22 -2,5 C 91 % 1026,8 hPa 0,0 l/m 0,0 km/h (0 Bft) O 90 -3,8 C -2,5 C
25.01.2012 09:27 -2,4 C 91 % 1026,8 hPa 0,0 l/m 0,0 km/h (0 Bft) O 90 -3,7 C -2,4 C
25.01.2012 09:32 -2,5 C 91 % 1026,8 hPa 0,0 l/m 0,0 km/h (0 Bft) O 90 -3,8 C -2,5 C
25.01.2012 09:37 -2,5 C 91 % 1026,9 hPa 0,0 l/m 0,0 km/h (0 Bft) O 90 -3,8 C -2,5 C
25.01.2012 09:42 -2,5 C 91 % 1026,8 hPa 0,0 l/m 0,0 km/h (0 Bft) O 90 -3,8 C -2,5 C
25.01.2012 09:47 -2,4 C 91 % 1026,8 hPa 0,0 l/m 0,0 km/h (0 Bft) O 90 -3,7 C -2,4 C
25.01.2012 09:52 -2,4 C 91 % 1026,9 hPa 0,0 l/m 0,0 km/h (0 Bft) O 90 -3,7 C -2,4 C
25.01.2012 09:57 -2,4 C 91 % 1026,7 hPa 0,0 l/m 3,6 km/h (1 Bft) O 90 -3,7 C -2,4 C
25.01.2012 10:02 -2,4 C 91 % 1026,6 hPa 0,0 l/m 3,2 km/h (1 Bft) O 90 -3,7 C -2,4 C
25.01.2012 10:07 -2,4 C 91 % 1026,8 hPa 0,0 l/m 1,4 km/h (1 Bft) O 90 -3,7 C -2,4 C
25.01.2012 10:12 -2,4 C 91 % 1026,6 hPa 0,0 l/m 2,5 km/h (1 Bft) O 90 -3,7 C -2,4 C
25.01.2012 10:17 -2,4 C 91 % 1026,6 hPa 0,0 l/m 2,2 km/h (1 Bft) O 90 -3,7 C -2,4 C
25.01.2012 10:22 -2,4 C 91 % 1026,6 hPa 0,0 l/m 0,0 km/h (0 Bft) O 90 -3,7 C -2,4 C
25.01.2012 10:27 -2,3 C 91 % 1026,6 hPa 0,0 l/m 0,0 km/h (0 Bft) O 90 -3,6 C -2,3 C
25.01.2012 10:32 -2,2 C 91 % 1026,6 hPa 0,0 l/m 4,0 km/h (1 Bft) O 90 -3,5 C -2,2 C
25.01.2012 10:37 -2,2 C 91 % 1026,6 hPa 0,0 l/m 6,5 km/h (2 Bft) O 90 -3,5 C -4,8 C
25.01.2012 10:42 -2,2 C 91 % 1026,7 hPa 0,0 l/m 0,0 km/h (0 Bft) O 90 -3,5 C -2,2 C
25.01.2012 10:47 -2,2 C 91 % 1026,8 hPa 0,0 l/m 2,9 km/h (1 Bft) O 90 -3,5 C -2,2 C
25.01.2012 10:52 -2,1 C 91 % 1026,8 hPa 0,0 l/m 2,9 km/h (1 Bft) O 90 -3,4 C -2,1 C
25.01.2012 10:57 -2,1 C 91 % 1026,9 hPa 0,0 l/m 2,2 km/h (1 Bft) O 90 -3,4 C -2,1 C
25.01.2012 11:02 -2,1 C 91 % 1026,9 hPa 0,0 l/m 0,0 km/h (0 Bft) O 90 -3,4 C -2,1 C
25.01.2012 11:07 -1,9 C 91 % 1026,9 hPa 0,0 l/m 0,0 km/h (0 Bft) O 90 -3,2 C -1,9 C
25.01.2012 11:12 -1,8 C 91 % 1026,9 hPa 0,0 l/m 0,0 km/h (0 Bft) O 90 -3,1 C -1,8 C
25.01.2012 11:17 -1,7 C 91 % 1026,9 hPa 0,0 l/m 4,3 km/h (1 Bft) O 90 -3,0 C -1,7 C
25.01.2012 11:22 -1,6 C 91 % 1026,9 hPa 0,0 l/m 2,5 km/h (1 Bft) O 90 -2,9 C -1,6 C
25.01.2012 11:27 -1,6 C 91 % 1026,9 hPa 0,0 l/m 0,0 km/h (0 Bft) O 90 -2,9 C -1,6 C
25.01.2012 11:32 -1,6 C 90 % 1026,7 hPa 0,0 l/m 0,0 km/h (0 Bft) O 90 -3,0 C -1,6 C
25.01.2012 11:37 -1,6 C 90 % 1026,8 hPa 0,0 l/m 0,0 km/h (0 Bft) O 90 -3,0 C -1,6 C
25.01.2012 11:42 -1,6 C 90 % 1026,8 hPa 0,0 l/m 0,0 km/h (0 Bft) O 90 -3,0 C -1,6 C
25.01.2012 11:47 -1,6 C 90 % 1026,7 hPa 0,0 l/m 0,0 km/h (0 Bft) O 90 -3,0 C -1,6 C
25.01.2012 11:52 -1,6 C 90 % 1026,7 hPa 0,0 l/m 0,0 km/h (0 Bft) O 90 -3,0 C -1,6 C
25.01.2012 11:57 -1,6 C 90 % 1026,6 hPa 0,0 l/m 0,0 km/h (0 Bft) O 90 -3,0 C -1,6 C
25.01.2012 12:02 -1,6 C 90 % 1026,8 hPa 0,0 l/m 0,0 km/h (0 Bft) O 90 -3,0 C -1,6 C
25.01.2012 12:07 -1,6 C 90 % 1026,8 hPa 0,0 l/m 0,0 km/h (0 Bft) O 90 -3,0 C -1,6 C
25.01.2012 12:12 -1,6 C 90 % 1026,8 hPa 0,0 l/m 0,0 km/h (0 Bft) O 90 -3,0 C -1,6 C
25.01.2012 12:17 -1,6 C 90 % 1026,8 hPa 0,0 l/m 0,0 km/h (0 Bft) O 90 -3,0 C -1,6 C
25.01.2012 12:22 -1,4 C 90 % 1026,8 hPa 0,0 l/m 0,0 km/h (0 Bft) O 90 -2,8 C -1,4 C
25.01.2012 12:27 -1,4 C 89 % 1027,0 hPa 0,0 l/m 0,0 km/h (0 Bft) O 90 -3,0 C -1,4 C
25.01.2012 12:32 -1,3 C 89 % 1027,0 hPa 0,0 l/m 0,0 km/h (0 Bft) O 90 -2,9 C -1,3 C
25.01.2012 12:37 -1,4 C 89 % 1026,9 hPa 0,0 l/m 0,0 km/h (0 Bft) O 90 -3,0 C -1,4 C
25.01.2012 12:42 -1,4 C 89 % 1027,0 hPa 0,0 l/m 0,0 km/h (0 Bft) O 90 -3,0 C -1,4 C
25.01.2012 12:47 -1,3 C 89 % 1026,9 hPa 0,0 l/m 8,3 km/h (2 Bft) O 90 -2,9 C -4,4 C
25.01.2012 12:52 -1,3 C 89 % 1026,9 hPa 0,0 l/m 0,0 km/h (0 Bft) O 90 -2,9 C -1,3 C
25.01.2012 12:57 -1,2 C 89 % 1027,0 hPa 0,0 l/m 0,0 km/h (0 Bft) O 90 -2,8 C -1,2 C
25.01.2012 13:02 -1,2 C 89 % 1027,0 hPa 0,0 l/m 1,1 km/h (1 Bft) O 90 -2,8 C -1,2 C
25.01.2012 13:07 -1,2 C 89 % 1027,0 hPa 0,0 l/m 4,7 km/h (1 Bft) O 90 -2,8 C -2,8 C
25.01.2012 13:12 -1,3 C 88 % 1026,8 hPa 0,0 l/m 0,0 km/h (0 Bft) O 90 -3,0 C -1,3 C
25.01.2012 13:17 -1,3 C 88 % 1026,7 hPa 0,0 l/m 1,8 km/h (1 Bft) O 90 -3,0 C -1,3 C
25.01.2012 13:22 -1,2 C 89 % 1026,8 hPa 0,0 l/m 2,5 km/h (1 Bft) O 90 -2,8 C -1,2 C
25.01.2012 13:27 -1,2 C 89 % 1026,9 hPa 0,0 l/m 0,0 km/h (0 Bft) O 90 -2,8 C -1,2 C
25.01.2012 13:32 -1,2 C 88 % 1026,9 hPa 0,0 l/m 2,2 km/h (1 Bft) O 90 -2,9 C -1,2 C
25.01.2012 13:37 -1,1 C 88 % 1026,8 hPa 0,0 l/m 6,1 km/h (2 Bft) O 90 -2,8 C -3,3 C
25.01.2012 13:42 -1,1 C 88 % 1027,0 hPa 0,0 l/m 6,5 km/h (2 Bft) O 90 -2,8 C -3,5 C
25.01.2012 13:47 -1,1 C 88 % 1026,9 hPa 0,0 l/m 3,2 km/h (1 Bft) O 90 -2,8 C -1,1 C
25.01.2012 13:52 -1,2 C 88 % 1026,7 hPa 0,0 l/m 3,2 km/h (1 Bft) O 90 -2,9 C -1,2 C
25.01.2012 13:57 -1,2 C 88 % 1026,7 hPa 0,0 l/m 0,0 km/h (0 Bft) O 90 -2,9 C -1,2 C
25.01.2012 14:02 -1,1 C 88 % 1026,7 hPa 0,0 l/m 2,2 km/h (1 Bft) O 90 -2,8 C -1,1 C
25.01.2012 14:07 -1,2 C 88 % 1026,9 hPa 0,0 l/m 2,5 km/h (1 Bft) O 90 -2,9 C -1,2 C
25.01.2012 14:12 -1,1 C 88 % 1026,9 hPa 0,0 l/m 2,2 km/h (1 Bft) O 90 -2,8 C -1,1 C
25.01.2012 14:17 -1,1 C 88 % 1026,6 hPa 0,0 l/m 4,0 km/h (1 Bft) O 90 -2,8 C -1,1 C
25.01.2012 14:22 -1,1 C 88 % 1026,7 hPa 0,0 l/m 4,0 km/h (1 Bft) O 90 -2,8 C -1,1 C
25.01.2012 14:27 -1,1 C 88 % 1026,7 hPa 0,0 l/m 2,5 km/h (1 Bft) O 90 -2,8 C -1,1 C
25.01.2012 14:32 -1,1 C 87 % 1026,7 hPa 0,0 l/m 3,2 km/h (1 Bft) O 90 -3,0 C -1,1 C
25.01.2012 14:37 -1,1 C 87 % 1026,6 hPa 0,0 l/m 4,0 km/h (1 Bft) O 90 -3,0 C -1,1 C
25.01.2012 14:42 -1,1 C 87 % 1026,6 hPa 0,0 l/m 4,0 km/h (1 Bft) O 90 -3,0 C -1,1 C
25.01.2012 14:47 -1,1 C 87 % 1026,6 hPa 0,0 l/m 4,0 km/h (1 Bft) O 90 -3,0 C -1,1 C
25.01.2012 14:52 -1,0 C 87 % 1026,5 hPa 0,0 l/m 1,4 km/h (1 Bft) O 90 -2,9 C -1,0 C
25.01.2012 14:57 -0,9 C 87 % 1026,5 hPa 0,0 l/m 5,8 km/h (2 Bft) O 90 -2,8 C -3,0 C
25.01.2012 15:02 -0,9 C 87 % 1026,6 hPa 0,0 l/m 1,8 km/h (1 Bft) O 90 -2,8 C -0,9 C
25.01.2012 15:07 -0,8 C 87 % 1026,7 hPa 0,0 l/m 1,8 km/h (1 Bft) O 90 -2,7 C -0,8 C
25.01.2012 15:12 -0,8 C 86 % 1026,7 hPa 0,0 l/m 3,6 km/h (1 Bft) O 90 -2,8 C -0,8 C
25.01.2012 15:17 -0,8 C 86 % 1026,6 hPa 0,0 l/m 2,9 km/h (1 Bft) O 90 -2,8 C -0,8 C
25.01.2012 15:22 -0,7 C 86 % 1026,7 hPa 0,0 l/m 3,6 km/h (1 Bft) O 90 -2,7 C -0,7 C
25.01.2012 15:27 -0,7 C 86 % 1026,7 hPa 0,0 l/m 2,9 km/h (1 Bft) O 90 -2,7 C -0,7 C
25.01.2012 15:32 -0,7 C 86 % 1026,8 hPa 0,0 l/m 4,0 km/h (1 Bft) O 90 -2,7 C -0,7 C
25.01.2012 15:37 -0,8 C 86 % 1026,8 hPa 0,0 l/m 4,3 km/h (1 Bft) O 90 -2,8 C -0,8 C
25.01.2012 15:42 -0,7 C 86 % 1026,8 hPa 0,0 l/m 3,6 km/h (1 Bft) O 90 -2,7 C -0,7 C
25.01.2012 15:47 -0,7 C 85 % 1026,9 hPa 0,0 l/m 0,0 km/h (0 Bft) O 90 -2,9 C -0,7 C
25.01.2012 15:52 -0,7 C 85 % 1026,8 hPa 0,0 l/m 1,4 km/h (1 Bft) O 90 -2,9 C -0,7 C
25.01.2012 15:57 -0,7 C 85 % 1026,7 hPa 0,0 l/m 1,1 km/h (1 Bft) O 90 -2,9 C -0,7 C
25.01.2012 16:02 -0,7 C 85 % 1026,8 hPa 0,0 l/m 5,0 km/h (1 Bft) O 90 -2,9 C -2,4 C
25.01.2012 16:07 -0,6 C 85 % 1026,8 hPa 0,0 l/m 0,0 km/h (0 Bft) O 90 -2,8 C -0,6 C
25.01.2012 16:12 -0,6 C 85 % 1026,8 hPa 0,0 l/m 0,0 km/h (0 Bft) O 90 -2,8 C -0,6 C
25.01.2012 16:17 -0,7 C 85 % 1026,9 hPa 0,0 l/m 3,2 km/h (1 Bft) O 90 -2,9 C -0,7 C
25.01.2012 16:22 -0,7 C 85 % 1026,9 hPa 0,0 l/m 2,2 km/h (1 Bft) O 90 -2,9 C -0,7 C
25.01.2012 16:27 -0,7 C 84 % 1026,9 hPa 0,0 l/m 0,0 km/h (0 Bft) O 90 -3,1 C -0,7 C
25.01.2012 16:32 -0,7 C 84 % 1026,8 hPa 0,0 l/m 1,4 km/h (1 Bft) O 90 -3,1 C -0,7 C
25.01.2012 16:37 -0,6 C 84 % 1026,7 hPa 0,0 l/m 2,2 km/h (1 Bft) O 90 -3,0 C -0,6 C
25.01.2012 16:42 -0,7 C 84 % 1026,8 hPa 0,0 l/m 1,4 km/h (1 Bft) O 90 -3,1 C -0,7 C
25.01.2012 16:47 -0,7 C 84 % 1026,8 hPa 0,0 l/m 2,2 km/h (1 Bft) O 90 -3,1 C -0,7 C
25.01.2012 16:52 -0,7 C 84 % 1026,6 hPa 0,0 l/m 1,4 km/h (1 Bft) O 90 -3,1 C -0,7 C
25.01.2012 16:57 -0,7 C 84 % 1026,7 hPa 0,0 l/m 0,0 km/h (0 Bft) O 90 -3,1 C -0,7 C
25.01.2012 17:02 -0,8 C 84 % 1026,6 hPa 0,0 l/m 7,9 km/h (2 Bft) O 90 -3,2 C -3,6 C
25.01.2012 17:07 -0,8 C 84 % 1026,7 hPa 0,0 l/m 7,2 km/h (2 Bft) O 90 -3,2 C -3,4 C
25.01.2012 17:12 -0,8 C 84 % 1026,8 hPa 0,0 l/m 6,8 km/h (2 Bft) O 90 -3,2 C -3,3 C
25.01.2012 17:17 -0,8 C 84 % 1026,7 hPa 0,0 l/m 5,4 km/h (1 Bft) O 90 -3,2 C -2,7 C
25.01.2012 17:22 -0,8 C 84 % 1026,8 hPa 0,0 l/m 0,0 km/h (0 Bft) O 90 -3,2 C -0,8 C
25.01.2012 17:27 -0,9 C 84 % 1026,8 hPa 0,0 l/m 1,4 km/h (1 Bft) O 90 -3,3 C -0,9 C
25.01.2012 17:32 -0,9 C 84 % 1026,8 hPa 0,0 l/m 5,8 km/h (2 Bft) O 90 -3,3 C -3,0 C
25.01.2012 17:37 -1,0 C 84 % 1026,8 hPa 0,0 l/m 1,8 km/h (1 Bft) O 90 -3,4 C -1,0 C
25.01.2012 17:42 -1,1 C 84 % 1026,7 hPa 0,0 l/m 2,9 km/h (1 Bft) O 90 -3,4 C -1,1 C
25.01.2012 17:47 -1,2 C 84 % 1026,6 hPa 0,0 l/m 4,7 km/h (1 Bft) O 90 -3,5 C -2,8 C
25.01.2012 17:52 -1,2 C 84 % 1026,8 hPa 0,0 l/m 1,1 km/h (1 Bft) O 90 -3,5 C -1,2 C
25.01.2012 17:57 -1,3 C 85 % 1026,8 hPa 0,0 l/m 3,2 km/h (1 Bft) O 90 -3,5 C -1,3 C
25.01.2012 18:02 -1,4 C 85 % 1026,8 hPa 0,0 l/m 0,0 km/h (0 Bft) O 90 -3,6 C -1,4 C
25.01.2012 18:07 -1,5 C 85 % 1026,9 hPa 0,0 l/m 5,0 km/h (1 Bft) O 90 -3,7 C -3,3 C
25.01.2012 18:12 -1,5 C 85 % 1026,9 hPa 0,0 l/m 1,1 km/h (1 Bft) O 90 -3,7 C -1,5 C
25.01.2012 18:17 -1,6 C 85 % 1026,8 hPa 0,0 l/m 0,0 km/h (0 Bft) O 90 -3,8 C -1,6 C
25.01.2012 18:22 -1,6 C 85 % 1026,8 hPa 0,0 l/m 1,8 km/h (1 Bft) O 90 -3,8 C -1,6 C
25.01.2012 18:27 -1,6 C 85 % 1026,8 hPa 0,0 l/m 2,2 km/h (1 Bft) O 90 -3,8 C -1,6 C
25.01.2012 18:32 -1,7 C 85 % 1026,8 hPa 0,0 l/m 4,0 km/h (1 Bft) O 90 -3,9 C -1,7 C
25.01.2012 18:37 -1,7 C 86 % 1026,8 hPa 0,0 l/m 0,0 km/h (0 Bft) O 90 -3,7 C -1,7 C
25.01.2012 18:42 -1,8 C 86 % 1026,9 hPa 0,0 l/m 1,8 km/h (1 Bft) O 90 -3,8 C -1,8 C
25.01.2012 18:47 -1,8 C 86 % 1026,7 hPa 0,0 l/m 0,0 km/h (0 Bft) O 90 -3,8 C -1,8 C
25.01.2012 18:52 -1,9 C 86 % 1026,6 hPa 0,0 l/m 0,0 km/h (0 Bft) O 90 -3,9 C -1,9 C
25.01.2012 18:57 -1,9 C 86 % 1026,6 hPa 0,0 l/m 0,0 km/h (0 Bft) O 90 -3,9 C -1,9 C
25.01.2012 19:02 -2,0 C 86 % 1026,6 hPa 0,0 l/m 1,8 km/h (1 Bft) O 90 -4,0 C -2,0 C
25.01.2012 19:07 -2,0 C 86 % 1026,6 hPa 0,0 l/m 0,0 km/h (0 Bft) O 90 -4,0 C -2,0 C
25.01.2012 19:12 -2,1 C 86 % 1026,6 hPa 0,0 l/m 5,8 km/h (2 Bft) O 90 -4,1 C -4,4 C
25.01.2012 19:17 -2,1 C 86 % 1026,7 hPa 0,0 l/m 2,2 km/h (1 Bft) O 90 -4,1 C -2,1 C
25.01.2012 19:22 -2,1 C 86 % 1026,8 hPa 0,0 l/m 0,0 km/h (0 Bft) O 90 -4,1 C -2,1 C
25.01.2012 19:27 -2,1 C 86 % 1026,8 hPa 0,0 l/m 4,0 km/h (1 Bft) O 90 -4,1 C -2,1 C
25.01.2012 19:32 -2,1 C 86 % 1026,7 hPa 0,0 l/m 2,5 km/h (1 Bft) O 90 -4,1 C -2,1 C
25.01.2012 19:37 -2,2 C 87 % 1026,7 hPa 0,0 l/m 0,0 km/h (0 Bft) O 90 -4,1 C -2,2 C
25.01.2012 19:42 -2,2 C 87 % 1026,7 hPa 0,0 l/m 0,0 km/h (0 Bft) O 90 -4,1 C -2,2 C
25.01.2012 19:47 -2,2 C 87 % 1026,5 hPa 0,0 l/m 0,0 km/h (0 Bft) O 90 -4,1 C -2,2 C
25.01.2012 19:52 -2,3 C 87 % 1026,7 hPa 0,0 l/m 0,0 km/h (0 Bft) O 90 -4,2 C -2,3 C
25.01.2012 19:57 -2,4 C 87 % 1026,8 hPa 0,0 l/m 0,0 km/h (0 Bft) O 90 -4,3 C -2,4 C
25.01.2012 20:02 -2,4 C 87 % 1026,8 hPa 0,0 l/m 0,0 km/h (0 Bft) O 90 -4,3 C -2,4 C
25.01.2012 20:07 -2,4 C 87 % 1026,7 hPa 0,0 l/m 0,0 km/h (0 Bft) O 90 -4,3 C -2,4 C
25.01.2012 20:12 -2,5 C 87 % 1026,7 hPa 0,0 l/m 0,0 km/h (0 Bft) O 90 -4,4 C -2,5 C
25.01.2012 20:17 -2,5 C 87 % 1026,8 hPa 0,0 l/m 0,0 km/h (0 Bft) O 90 -4,4 C -2,5 C
25.01.2012 20:22 -2,5 C 87 % 1026,6 hPa 0,0 l/m 1,4 km/h (1 Bft) O 90 -4,4 C -2,5 C
25.01.2012 20:27 -2,6 C 87 % 1026,8 hPa 0,0 l/m 4,7 km/h (1 Bft) O 90 -4,5 C -4,4 C
25.01.2012 20:32 -2,7 C 87 % 1026,8 hPa 0,0 l/m 2,5 km/h (1 Bft) O 90 -4,6 C -2,7 C
25.01.2012 20:37 -2,7 C 87 % 1026,8 hPa 0,0 l/m 0,0 km/h (0 Bft) O 90 -4,6 C -2,7 C
25.01.2012 20:42 -2,7 C 87 % 1026,9 hPa 0,0 l/m 0,0 km/h (0 Bft) O 90 -4,6 C -2,7 C
25.01.2012 20:47 -2,7 C 87 % 1026,9 hPa 0,0 l/m 0,0 km/h (0 Bft) O 90 -4,6 C -2,7 C
25.01.2012 20:52 -2,7 C 87 % 1026,8 hPa 0,0 l/m 0,0 km/h (0 Bft) O 90 -4,6 C -2,7 C
25.01.2012 20:57 -2,8 C 87 % 1026,8 hPa 0,0 l/m 1,8 km/h (1 Bft) O 90 -4,7 C -2,8 C
25.01.2012 21:02 -2,7 C 87 % 1026,8 hPa 0,0 l/m 0,0 km/h (0 Bft) O 90 -4,6 C -2,7 C
25.01.2012 21:07 -2,8 C 87 % 1026,9 hPa 0,0 l/m 0,0 km/h (0 Bft) O 90 -4,7 C -2,8 C
25.01.2012 21:12 -2,9 C 87 % 1026,8 hPa 0,0 l/m 2,5 km/h (1 Bft) O 90 -4,8 C -2,9 C
25.01.2012 21:17 -2,9 C 87 % 1026,8 hPa 0,0 l/m 1,1 km/h (1 Bft) O 90 -4,8 C -2,9 C
25.01.2012 21:22 -2,9 C 87 % 1026,7 hPa 0,0 l/m 2,2 km/h (1 Bft) O 90 -4,8 C -2,9 C
25.01.2012 21:27 -3,0 C 88 % 1026,9 hPa 0,0 l/m 1,4 km/h (1 Bft) O 90 -4,7 C -3,0 C
25.01.2012 21:32 -3,0 C 88 % 1026,9 hPa 0,0 l/m 2,9 km/h (1 Bft) O 90 -4,7 C -3,0 C
25.01.2012 21:37 -3,0 C 88 % 1027,0 hPa 0,0 l/m 1,8 km/h (1 Bft) O 90 -4,7 C -3,0 C
25.01.2012 21:42 -3,1 C 88 % 1027,1 hPa 0,0 l/m 3,2 km/h (1 Bft) O 90 -4,8 C -3,1 C
25.01.2012 21:47 -3,1 C 88 % 1027,0 hPa 0,0 l/m 4,0 km/h (1 Bft) O 90 -4,8 C -3,1 C
25.01.2012 21:52 -3,1 C 88 % 1026,9 hPa 0,0 l/m 3,2 km/h (1 Bft) O 90 -4,8 C -3,1 C
25.01.2012 21:57 -3,1 C 88 % 1027,0 hPa 0,0 l/m 2,5 km/h (1 Bft) O 90 -4,8 C -3,1 C
25.01.2012 22:02 -3,2 C 88 % 1027,0 hPa 0,0 l/m 3,2 km/h (1 Bft) O 90 -4,9 C -3,2 C
25.01.2012 22:07 -3,2 C 88 % 1027,1 hPa 0,0 l/m 2,9 km/h (1 Bft) O 90 -4,9 C -3,2 C
25.01.2012 22:12 -3,2 C 88 % 1027,2 hPa 0,0 l/m 2,9 km/h (1 Bft) O 90 -4,9 C -3,2 C
25.01.2012 22:17 -3,2 C 88 % 1027,1 hPa 0,0 l/m 5,8 km/h (2 Bft) O 90 -4,9 C -5,6 C
25.01.2012 22:22 -3,3 C 88 % 1027,2 hPa 0,0 l/m 5,0 km/h (1 Bft) O 90 -5,0 C -5,3 C
25.01.2012 22:27 -3,4 C 88 % 1027,2 hPa 0,0 l/m 4,7 km/h (1 Bft) O 90 -5,1 C -5,3 C
25.01.2012 22:32 -3,4 C 88 % 1027,2 hPa 0,0 l/m 2,2 km/h (1 Bft) O 90 -5,1 C -3,4 C
25.01.2012 22:37 -3,4 C 88 % 1027,1 hPa 0,0 l/m 2,5 km/h (1 Bft) O 90 -5,1 C -3,4 C
25.01.2012 22:42 -3,4 C 89 % 1027,3 hPa 0,0 l/m 4,3 km/h (1 Bft) O 90 -4,9 C -3,4 C
25.01.2012 22:47 -3,3 C 89 % 1027,3 hPa 0,0 l/m 4,7 km/h (1 Bft) O 90 -4,8 C -5,2 C
25.01.2012 22:52 -3,4 C 89 % 1027,2 hPa 0,0 l/m 4,7 km/h (1 Bft) O 90 -4,9 C -5,3 C
25.01.2012 22:57 -3,3 C 89 % 1027,2 hPa 0,0 l/m 3,2 km/h (1 Bft) O 90 -4,8 C -3,3 C
25.01.2012 23:02 -3,3 C 89 % 1027,5 hPa 0,0 l/m 3,6 km/h (1 Bft) O 90 -4,8 C -3,3 C
25.01.2012 23:07 -3,3 C 89 % 1027,3 hPa 0,0 l/m 4,3 km/h (1 Bft) O 90 -4,8 C -3,3 C
25.01.2012 23:12 -3,3 C 89 % 1027,3 hPa 0,0 l/m 2,5 km/h (1 Bft) O 90 -4,8 C -3,3 C
25.01.2012 23:17 -3,4 C 89 % 1027,3 hPa 0,0 l/m 3,6 km/h (1 Bft) O 90 -4,9 C -3,4 C
25.01.2012 23:22 -3,4 C 89 % 1027,4 hPa 0,0 l/m 2,2 km/h (1 Bft) O 90 -4,9 C -3,4 C
25.01.2012 23:27 -3,4 C 89 % 1027,3 hPa 0,0 l/m 2,5 km/h (1 Bft) O 90 -4,9 C -3,4 C
25.01.2012 23:32 -3,4 C 89 % 1027,3 hPa 0,0 l/m 4,0 km/h (1 Bft) O 90 -4,9 C -3,4 C
25.01.2012 23:37 -3,5 C 89 % 1027,3 hPa 0,0 l/m 1,8 km/h (1 Bft) O 90 -5,0 C -3,5 C
25.01.2012 23:42 -3,5 C 89 % 1027,3 hPa 0,0 l/m 3,6 km/h (1 Bft) O 90 -5,0 C -3,5 C
25.01.2012 23:47 -3,5 C 89 % 1027,4 hPa 0,0 l/m 7,2 km/h (2 Bft) O 90 -5,0 C -6,6 C
25.01.2012 23:52 -3,5 C 89 % 1027,2 hPa 0,0 l/m 2,5 km/h (1 Bft) O 90 -5,0 C -3,5 C
25.01.2012 23:57 -3,5 C 89 % 1027,3 hPa 0,0 l/m 5,4 km/h (1 Bft) O 90 -5,0 C -5,8 C
_ Min-Zeit 23:37 16:27 00:07 - 00:02 - - 22:27 23:47
Minimum _ -3,5 C 84 % 1024,3 hPa - 0,0 km/h (0 Bft) - - -5,1 C -6,6 C
_ Max-Zeit 16:07 05:57 23:02 00:02 12:47 - - 00:02 16:07
Maximum _ -0,6 C 92 % 1027,5 hPa 0,0 l/m 8,3 km/h
O (2 Bft)
- - -2,4 C -0,6 C
Durchschnitt _ -1,9 C 89 % 1026,4 hPa #0,0 l/m 2,0 km/h (1 Bft) O - -3,5 C -2,1 C
(c) by David Heller